EW1898 Weather Reports


time (UTC)temp
F
wind
direction
speed
knots
gust
knots
rain 1hr
in
rain 24hr
in
rain mn
in
humidity
%
barometer
mb
20260905140001 66 295 0.0 0.9 0.00 0.00 0.00 86 1010.1
20260905134559 66 295 0.0 0.9 0.00 0.00 0.00 87 1010.0
20260905133055 65 299 0.0 1.7 0.00 0.00 0.00 87 1009.8
20260905131602 65 295 0.0 1.7 0.00 0.00 0.00 88 1009.7
20260905130051 64 277 0.0 2.6 0.00 0.00 0.00 88 1009.5
20260905124548 64 274 0.0 2.6 0.00 0.00 0.00 88 1009.5
20260905123104 64 293 0.0 1.7 0.00 0.00 0.00 89 1009.2
20260905121544 63 286 0.0 0.9 0.00 0.00 0.00 89 1009.0
20260905120043 63 279 0.9 3.5 0.00 0.00 0.00 89 1009.0
20260905114545 63 281 0.0 2.6 0.00 0.00 0.00 90 1008.9
20260905113041 63 286 0.0 1.7 0.00 0.00 0.00 90 1008.7
20260905111541 62 298 0.0 3.5 0.00 0.00 0.00 91 1008.7
20260905110040 61 290 0.0 1.7 0.00 0.00 0.00 92 1008.6
20260905104539 61 288 0.0 0.9 0.00 0.00 0.00 92 1008.6
20260905103048 61 293 0.0 0.0 0.00 0.00 0.00 91 1008.6
20260905101539 61 293 0.0 0.0 0.00 0.00 0.00 92 1008.5
20260905100049 61 293 0.0 0.0 0.00 0.00 0.00 92 1008.4
20260905094536 61 293 0.0 0.0 0.00 0.00 0.00 92 1008.2
20260905093035 61 293 0.0 0.0 0.00 0.00 0.00 92 1008.2
20260905091542 60 293 0.0 0.0 0.00 0.00 0.00 93 1008.1
20260905090032 60 293 0.0 0.0 0.00 0.00 0.00 91 1008.1
20260905084534 61 293 0.0 0.0 0.00 0.00 0.00 92 1008.0
20260905083033 60 293 0.0 0.0 0.00 0.00 0.00 92 1008.0
20260905081530 60 293 0.0 0.9 0.00 0.00 0.00 93 1008.0
20260905080048 60 293 0.0 0.9 0.00 0.00 0.00 92 1008.0
20260905074530 61 293 0.0 1.7 0.00 0.00 0.00 91 1008.0
20260905073027 61 294 0.0 0.9 0.00 0.00 0.00 90 1008.1
20260905071527 62 294 0.0 1.7 0.00 0.00 0.00 90 1008.2
20260905070031 62 294 0.0 1.7 0.00 0.00 0.00 90 1008.2
20260905064521 61 295 0.0 1.7 0.00 0.00 0.00 90 1008.3
20260905063018 62 295 0.0 1.7 0.00 0.00 0.00 89 1008.4
20260905061518 63 295 0.0 0.9 0.00 0.00 0.00 88 1008.6
20260905060035 62 295 0.0 1.7 0.00 0.00 0.00 88 1008.8
20260905054514 63 295 0.0 2.6 0.00 0.00 0.00 87 1008.7
20260905053013 63 294 0.0 1.7 0.00 0.00 0.00 87 1008.9
20260905051515 63 294 0.0 0.0 0.00 0.00 0.00 88 1008.7
20260905050017 63 294 0.0 0.9 0.00 0.00 0.00 88 1008.9
20260905044515 63 294 0.0 0.9 0.00 0.00 0.00 88 1008.8
20260905043009 63 294 0.0 0.9 0.00 0.00 0.00 88 1008.7
20260905041507 63 294 0.0 0.0 0.00 0.00 0.00 88 1008.8
20260905040004 63 294 0.0 0.0 0.00 0.00 0.00 88 1008.8
20260905034503 64 294 0.0 0.0 0.00 0.00 0.00 85 1008.8
20260905033003 65 294 0.0 2.6 0.00 0.00 0.00 84 1008.8
20260905031503 65 291 0.0 0.9 0.00 0.00 0.00 83 1008.9
20260905030003 66 291 0.0 0.0 0.00 0.00 0.00 81 1008.9
20260905024502 67 291 0.0 0.9 0.00 0.00 0.00 79 1008.9
20260905023100 67 291 0.0 0.0 0.00 0.00 0.00 78 1009.0
20260905021602 68 291 0.0 0.9 0.00 0.00 0.00 76 1009.1
20260905020058 68 291 0.0 1.7 0.00 0.00 0.00 75 1009.2
20260905014557 68 291 0.0 0.9 0.00 0.00 0.00 74 1009.2
20260905013057 69 291 0.0 0.9 0.00 0.00 0.00 71 1009.3
20260905011615 70 291 0.0 0.9 0.00 0.00 0.00 71 1009.3
20260905010055 69 291 0.0 1.7 0.00 0.00 0.00 71 1009.3
20260905004555 70 291 0.0 0.9 0.00 0.00 0.00 70 1009.1
20260905003057 71 291 0.9 2.6 0.00 0.00 0.00 69 1009.1
20260905001606 71 291 0.0 0.0 0.00 0.00 0.00 69 1009.1
20260905000054 72 291 0.0 0.9 0.00 0.00 0.00 68 1008.9
20260904234554 73 291 0.0 0.9 0.00 0.00 0.00 65 1008.7
20260904233104 73 291 0.0 1.7 0.00 0.00 0.00 63 1008.6
20260904231552 74 281 0.9 2.6 0.00 0.00 0.00 61 1008.4
20260904230051 75 295 1.7 4.3 0.00 0.00 0.00 60 1008.3
20260904224550 75 301 0.9 3.5 0.00 0.00 0.00 61 1008.3
20260904223054 76 295 0.9 4.3 0.00 0.00 0.00 60 1008.2
20260904221554 77 284 0.9 3.5 0.00 0.00 0.00 60 1008.2
20260904214550 77 294 0.0 1.7 0.00 0.00 0.00 59 1008.1
20260904213050 77 293 0.9 3.5 0.00 0.00 0.00 60 1008.2
20260904211547 78 296 0.9 5.2 0.00 0.00 0.00 60 1008.2
20260904210046 79 295 0.9 6.1 0.00 0.00 0.00 59 1008.2
20260904204546 78 276 1.7 3.5 0.00 0.00 0.00 59 1008.1
20260904203048 78 301 0.9 4.3 0.00 0.00 0.00 59 1008.2
20260904201600 79 324 1.7 5.2 0.00 0.00 0.00 58 1008.3
20260904200050 79 285 1.7 7.8 0.00 0.00 0.00 55 1008.0
20260904194542 80 265 1.7 7.0 0.00 0.00 0.00 52 1008.1
20260904193045 81 298 0.0 7.0 0.00 0.00 0.00 53 1007.8
20260904191541 80 303 1.7 6.1 0.00 0.00 0.00 55 1007.8
20260904190037 80 278 1.7 5.2 0.00 0.00 0.00 51 1008.1
20260904184541 80 294 0.9 6.1 0.00 0.00 0.00 56 1008.2
20260904183033 80 168 0.9 10.4 0.00 0.00 0.00 56 1008.3
20260904181536 79 287 3.5 7.8 0.00 0.00 0.00 56 1008.3
20260904180029 79 300 1.7 7.8 0.00 0.00 0.00 59 1008.4
20260904174528 79 264 2.6 7.0 0.00 0.00 0.00 58 1008.3
20260904173024 78 279 0.9 6.1 0.00 0.00 0.00 61 1008.4
20260904171535 77 297 0.0 3.5 0.00 0.00 0.00 66 1008.4
20260904170020 77 298 1.7 4.3 0.00 0.00 0.00 67 1008.8
20260904164519 78 284 0.9 5.2 0.00 0.00 0.00 66 1008.7
20260904163020 78 294 1.7 4.3 0.00 0.00 0.00 69 1008.7
20260904161517 77 288 1.7 4.3 0.00 0.00 0.00 70 1008.8
20260904160011 77 289 2.6 5.2 0.00 0.00 0.00 70 1009.1
20260904154511 76 296 1.7 6.1 0.00 0.00 0.00 72 1009.2
20260904153007 76 290 0.9 6.1 0.00 0.00 0.00 75 1009.4
20260904151506 76 284 0.0 4.3 0.00 0.00 0.00 77 1009.4
20260904150004 75 292 1.7 6.1 0.00 0.00 0.00 77 1009.4
20260904144619 74 291 0.0 4.3 0.00 0.00 0.00 79 1009.6
20260904143058 74 301 0.0 3.5 0.00 0.00 0.00 82 1009.8
20260904141559 73 296 0.9 4.3 0.00 0.00 0.00 84 1009.8